| time (UTC) | temp F | wind direction | speed knots | gust knots | rain 1hr in | rain 24hr in | rain mn in | humidity % | barometer mb |
| 20260904041705 | 64 | 265 | 0.0 | 1.7 | 0.00 | 0.00 | 0.00 | 72 | 1023.3 |
| 20260904040706 | 65 | 181 | 0.9 | 2.6 | 0.00 | 0.00 | 0.00 | 72 | 1022.9 |
| 20260904040205 | 65 | 116 | 0.9 | 1.7 | 0.00 | 0.00 | 0.00 | 73 | 1022.8 |
| 20260904035705 | 64 | 188 | 0.0 | 1.7 | 0.00 | 0.00 | 0.00 | 73 | 1023.2 |
| 20260904034204 | 64 | 221 | 0.9 | 2.6 | 0.00 | 0.00 | 0.00 | 73 | 1023.1 |
| 20260904033205 | 64 | 214 | 0.9 | 1.7 | 0.00 | 0.00 | 0.00 | 72 | 1022.9 |
| 20260904032705 | 64 | 206 | 1.7 | 4.3 | 0.00 | 0.00 | 0.00 | 72 | 1022.8 |
| 20260904032205 | 64 | 218 | 1.7 | 2.6 | 0.00 | 0.00 | 0.00 | 72 | 1022.8 |
| 20260904031205 | 64 | 174 | 0.0 | 1.7 | 0.00 | 0.00 | 0.00 | 72 | 1023.0 |
| 20260904030705 | 64 | 110 | 0.9 | 0.9 | 0.00 | 0.00 | 0.00 | 72 | 1023.1 |
| 20260904030205 | 64 | 135 | 0.0 | 1.7 | 0.00 | 0.00 | 0.00 | 72 | 1023.2 |
| 20260904025708 | 64 | 218 | 0.9 | 4.3 | 0.00 | 0.00 | 0.00 | 72 | 1022.9 |
| 20260904025206 | 64 | 197 | 1.7 | 4.3 | 0.00 | 0.00 | 0.00 | 72 | 1022.8 |
| 20260904024705 | 64 | 196 | 1.7 | 2.6 | 0.00 | 0.00 | 0.00 | 72 | 1022.8 |
| 20260904024205 | 63 | 199 | 0.9 | 2.6 | 0.00 | 0.00 | 0.00 | 72 | 1022.9 |
| 20260904023705 | 63 | 199 | 0.9 | 2.6 | 0.00 | 0.00 | 0.00 | 72 | 1022.9 |
| 20260904023205 | 63 | 208 | 0.9 | 1.7 | 0.00 | 0.00 | 0.00 | 71 | 1022.8 |
| 20260904022705 | 63 | 249 | 0.9 | 2.6 | 0.00 | 0.00 | 0.00 | 71 | 1023.0 |
| 20260904020705 | 64 | 90 | 0.9 | 1.7 | 0.00 | 0.00 | 0.00 | 70 | 1022.8 |
| 20260904020205 | 64 | 125 | 0.0 | 1.7 | 0.00 | 0.00 | 0.00 | 70 | 1022.8 |
| 20260904015705 | 64 | 113 | 0.9 | 2.6 | 0.00 | 0.00 | 0.00 | 70 | 1022.8 |
| 20260904015205 | 64 | 173 | 1.7 | 4.3 | 0.00 | 0.00 | 0.00 | 69 | 1022.7 |
| 20260904014707 | 64 | 178 | 1.7 | 4.3 | 0.00 | 0.00 | 0.00 | 69 | 1022.7 |
| 20260904014205 | 64 | 198 | 1.7 | 4.3 | 0.00 | 0.00 | 0.00 | 69 | 1022.9 |
| 20260904013705 | 65 | 147 | 0.0 | 1.7 | 0.00 | 0.00 | 0.00 | 68 | 1022.9 |
| 20260904012707 | 65 | 67 | 0.0 | 1.7 | 0.00 | 0.00 | 0.00 | 68 | 1022.9 |
| 20260904012205 | 65 | 167 | 0.9 | 2.6 | 0.00 | 0.00 | 0.00 | 68 | 1023.1 |
| 20260904011705 | 65 | 207 | 0.9 | 2.6 | 0.00 | 0.00 | 0.00 | 68 | 1023.1 |
| 20260904010705 | 65 | 204 | 0.9 | 1.7 | 0.00 | 0.00 | 0.00 | 67 | 1023.1 |
| 20260904010207 | 65 | 238 | 1.7 | 1.7 | 0.00 | 0.00 | 0.00 | 67 | 1023.2 |
| 20260904005207 | 66 | 310 | 0.0 | 1.7 | 0.00 | 0.00 | 0.00 | 66 | 1023.4 |
| 20260904003705 | 66 | 282 | 0.9 | 1.7 | 0.00 | 0.00 | 0.00 | 66 | 1023.5 |
| 20260904002705 | 66 | 279 | 0.9 | 1.7 | 0.00 | 0.00 | 0.00 | 66 | 1023.3 |
| 20260904002204 | 66 | 246 | 1.7 | 4.3 | 0.00 | 0.00 | 0.00 | 66 | 1023.5 |
| 20260904001205 | 66 | 243 | 2.6 | 4.3 | 0.00 | 0.00 | 0.00 | 67 | 1023.4 |
| 20260904000705 | 66 | 257 | 1.7 | 4.3 | 0.00 | 0.00 | 0.00 | 67 | 1023.6 |
| 20260904000205 | 65 | 268 | 1.7 | 5.2 | 0.00 | 0.00 | 0.00 | 68 | 1023.6 |
| 20260903235705 | 65 | 273 | 2.6 | 6.1 | 0.00 | 0.00 | 0.00 | 68 | 1023.5 |
| 20260903235207 | 64 | 279 | 3.5 | 5.2 | 0.00 | 0.00 | 0.00 | 69 | 1023.6 |
| 20260903234706 | 64 | 274 | 2.6 | 5.2 | 0.00 | 0.00 | 0.00 | 69 | 1023.7 |
| 20260903234205 | 64 | 275 | 2.6 | 4.3 | 0.00 | 0.00 | 0.00 | 69 | 1023.7 |
| 20260903233706 | 63 | 276 | 1.7 | 4.3 | 0.00 | 0.00 | 0.00 | 69 | 1023.8 |
| 20260903233205 | 63 | 272 | 1.7 | 2.6 | 0.00 | 0.00 | 0.00 | 69 | 1023.8 |
| 20260903231205 | 64 | 280 | 0.9 | 2.6 | 0.00 | 0.00 | 0.00 | 67 | 1023.7 |
| 20260903230704 | 64 | 292 | 1.7 | 2.6 | 0.00 | 0.00 | 0.00 | 66 | 1023.7 |
| 20260903230205 | 64 | 327 | 0.9 | 2.6 | 0.00 | 0.00 | 0.00 | 66 | 1023.7 |
| 20260903225705 | 64 | 329 | 0.9 | 1.7 | 0.00 | 0.00 | 0.00 | 66 | 1023.5 |
| 20260903225204 | 65 | 317 | 0.9 | 1.7 | 0.00 | 0.00 | 0.00 | 65 | 1023.6 |
| 20260903224704 | 65 | 312 | 0.0 | 1.7 | 0.00 | 0.00 | 0.00 | 65 | 1023.8 |
| 20260903224207 | 65 | 314 | 0.0 | 2.6 | 0.00 | 0.00 | 0.00 | 64 | 1023.6 |
| 20260903223205 | 65 | 314 | 1.7 | 4.3 | 0.00 | 0.00 | 0.00 | 64 | 1023.7 |
| 20260903222706 | 65 | 283 | 0.9 | 2.6 | 0.00 | 0.00 | 0.00 | 64 | 1023.9 |
| 20260903222206 | 65 | 288 | 1.7 | 5.2 | 0.00 | 0.00 | 0.00 | 64 | 1023.9 |
| 20260903220705 | 65 | 276 | 3.5 | 5.2 | 0.00 | 0.00 | 0.00 | 63 | 1023.7 |
| 20260903220205 | 65 | 279 | 2.6 | 5.2 | 0.00 | 0.00 | 0.00 | 63 | 1023.7 |
| 20260903215705 | 65 | 285 | 2.6 | 5.2 | 0.00 | 0.00 | 0.00 | 63 | 1023.7 |
| 20260903214204 | 65 | 289 | 2.6 | 6.1 | 0.00 | 0.00 | 0.00 | 64 | 1024.1 |
| 20260903213705 | 65 | 282 | 4.3 | 6.1 | 0.00 | 0.00 | 0.00 | 63 | 1023.9 |
| 20260903213205 | 65 | 287 | 2.6 | 5.2 | 0.00 | 0.00 | 0.00 | 63 | 1023.8 |
| 20260903212206 | 65 | 264 | 1.7 | 2.6 | 0.00 | 0.00 | 0.00 | 63 | 1023.6 |
| 20260903211205 | 65 | 296 | 1.7 | 2.6 | 0.00 | 0.00 | 0.00 | 63 | 1023.9 |
| 20260903210705 | 65 | 275 | 1.7 | 2.6 | 0.00 | 0.00 | 0.00 | 62 | 1023.8 |
| 20260903205704 | 65 | 282 | 1.7 | 4.3 | 0.00 | 0.00 | 0.00 | 62 | 1023.7 |
| 20260903205205 | 65 | 274 | 2.6 | 4.3 | 0.00 | 0.00 | 0.00 | 62 | 1023.7 |
| 20260903204705 | 65 | 276 | 2.6 | 4.3 | 0.00 | 0.00 | 0.00 | 63 | 1023.7 |
| 20260903203705 | 65 | 331 | 0.0 | 1.7 | 0.00 | 0.00 | 0.00 | 62 | 1023.7 |
| 20260903203205 | 65 | 317 | 0.9 | 1.7 | 0.00 | 0.00 | 0.00 | 62 | 1023.6 |
| 20260903202706 | 65 | 323 | 0.0 | 0.9 | 0.00 | 0.00 | 0.00 | 61 | 1023.5 |
| 20260903202205 | 65 | 312 | 0.9 | 1.7 | 0.00 | 0.00 | 0.00 | 60 | 1023.6 |
| 20260903201706 | 65 | 299 | 0.9 | 1.7 | 0.00 | 0.00 | 0.00 | 59 | 1023.6 |
| 20260903201205 | 66 | 308 | 0.9 | 1.7 | 0.00 | 0.00 | 0.00 | 57 | 1023.5 |
| 20260903200705 | 66 | 283 | 1.7 | 2.6 | 0.00 | 0.00 | 0.00 | 57 | 1023.4 |
| 20260903200205 | 66 | 281 | 1.7 | 2.6 | 0.00 | 0.00 | 0.00 | 57 | 1023.3 |
| 20260903195705 | 66 | 277 | 1.7 | 2.6 | 0.00 | 0.00 | 0.00 | 56 | 1023.5 |
| 20260903194706 | 66 | 262 | 1.7 | 1.7 | 0.00 | 0.00 | 0.00 | 56 | 1023.3 |
| 20260903193705 | 67 | 277 | 1.7 | 1.7 | 0.00 | 0.00 | 0.00 | 56 | 1023.4 |
| 20260903192205 | 67 | 279 | 0.9 | 1.7 | 0.00 | 0.00 | 0.00 | 55 | 1023.2 |
| 20260903191706 | 68 | 277 | 0.9 | 1.7 | 0.00 | 0.00 | 0.00 | 55 | 1023.0 |
| 20260903191205 | 68 | 271 | 0.9 | 1.7 | 0.00 | 0.00 | 0.00 | 55 | 1023.1 |
| 20260903190707 | 68 | 285 | 0.9 | 1.7 | 0.00 | 0.00 | 0.00 | 55 | 1023.1 |
| 20260903185705 | 68 | 269 | 0.9 | 1.7 | 0.00 | 0.00 | 0.00 | 54 | 1023.3 |
| 20260903184705 | 69 | 285 | 0.9 | 1.7 | 0.00 | 0.00 | 0.00 | 55 | 1023.3 |
| 20260903184205 | 69 | 267 | 0.0 | 1.7 | 0.00 | 0.00 | 0.00 | 55 | 1023.2 |
| 20260903183707 | 69 | 275 | 0.9 | 1.7 | 0.00 | 0.00 | 0.00 | 54 | 1023.1 |
| 20260903183205 | 69 | 277 | 0.9 | 1.7 | 0.00 | 0.00 | 0.00 | 53 | 1023.0 |
| 20260903182705 | 69 | 270 | 0.9 | 1.7 | 0.00 | 0.00 | 0.00 | 53 | 1023.2 |
| 20260903182206 | 70 | 273 | 1.7 | 2.6 | 0.00 | 0.00 | 0.00 | 53 | 1022.9 |
| 20260903181205 | 70 | 274 | 1.7 | 1.7 | 0.00 | 0.00 | 0.00 | 53 | 1022.8 |
| 20260903180704 | 71 | 266 | 0.9 | 1.7 | 0.00 | 0.00 | 0.00 | 55 | 1022.8 |
| 20260903180205 | 71 | 278 | 0.9 | 1.7 | 0.00 | 0.00 | 0.00 | 55 | 1022.7 |
| 20260903175705 | 71 | 287 | 0.9 | 1.7 | 0.00 | 0.00 | 0.00 | 55 | 1022.5 |
| 20260903175205 | 71 | 290 | 0.0 | 0.9 | 0.00 | 0.00 | 0.00 | 54 | 1022.5 |
| 20260903174706 | 72 | 331 | 0.9 | 0.9 | 0.00 | 0.00 | 0.00 | 53 | 1022.5 |
| 20260903174205 | 72 | 290 | 0.9 | 0.9 | 0.00 | 0.00 | 0.00 | 52 | 1022.8 |
| 20260903173705 | 72 | 309 | 0.0 | 1.7 | 0.00 | 0.00 | 0.00 | 52 | 1022.4 |
| 20260903172705 | 73 | 292 | 0.9 | 1.7 | 0.00 | 0.00 | 0.00 | 50 | 1022.5 |
| 20260903172205 | 73 | 309 | 0.9 | 0.9 | 0.00 | 0.00 | 0.00 | 49 | 1022.3 |
| 20260903171705 | 73 | 279 | 0.0 | 0.9 | 0.00 | 0.00 | 0.00 | 49 | 1022.4 |
| 20260903170705 | 74 | 308 | 0.0 | 0.9 | 0.00 | 0.00 | 0.00 | 47 | 1022.5 |
| 20260903165706 | 74 | 319 | 0.0 | 0.9 | 0.00 | 0.00 | 0.00 | 45 | 1022.2 |
| 20260903165204 | 75 | 324 | 0.9 | 1.7 | 0.00 | 0.00 | 0.00 | 45 | 1022.5 |
| 20260903164705 | 75 | 303 | 0.0 | 0.9 | 0.00 | 0.00 | 0.00 | 44 | 1022.5 |
| 20260903164205 | 75 | 271 | 0.0 | 0.9 | 0.00 | 0.00 | 0.00 | 43 | 1022.4 |
| 20260903163206 | 76 | 6 | 0.0 | 1.7 | 0.00 | 0.00 | 0.00 | 43 | 1022.2 |
| 20260903162705 | 76 | 350 | 0.9 | 1.7 | 0.00 | 0.00 | 0.00 | 42 | 1022.2 |
| 20260903162205 | 77 | 316 | 0.0 | 2.6 | 0.00 | 0.00 | 0.00 | 41 | 1022.3 |
| 20260903161705 | 77 | 324 | 1.7 | 2.6 | 0.00 | 0.00 | 0.00 | 41 | 1022.4 |
| 20260903161206 | 77 | 339 | 1.7 | 2.6 | 0.00 | 0.00 | 0.00 | 40 | 1022.4 |
| 20260903160705 | 77 | 343 | 2.6 | 4.3 | 0.00 | 0.00 | 0.00 | 40 | 1022.2 |
| 20260903153706 | 78 | 337 | 1.7 | 6.1 | 0.00 | 0.00 | 0.00 | 38 | 1022.2 |
| 20260903153205 | 78 | 334 | 3.5 | 6.1 | 0.00 | 0.00 | 0.00 | 37 | 1022.3 |
| 20260903152705 | 78 | 340 | 2.6 | 6.1 | 0.00 | 0.00 | 0.00 | 37 | 1022.3 |
| 20260903152205 | 79 | 335 | 2.6 | 7.0 | 0.00 | 0.00 | 0.00 | 37 | 1022.5 |
| 20260903151206 | 79 | 318 | 5.2 | 10.4 | 0.00 | 0.00 | 0.00 | 37 | 1022.5 |
| 20260903150705 | 79 | 330 | 4.3 | 7.8 | 0.00 | 0.00 | 0.00 | 37 | 1022.6 |
| 20260903145706 | 80 | 318 | 5.2 | 10.4 | 0.00 | 0.00 | 0.00 | 36 | 1022.5 |
| 20260903144706 | 80 | 348 | 2.6 | 8.7 | 0.00 | 0.00 | 0.00 | 36 | 1022.3 |
| 20260903144206 | 81 | 284 | 4.3 | 8.7 | 0.00 | 0.00 | 0.00 | 36 | 1022.3 |
| 20260903143706 | 81 | 337 | 4.3 | 8.7 | 0.00 | 0.00 | 0.00 | 35 | 1022.4 |
| 20260903142705 | 81 | 287 | 7.8 | 13.9 | 0.00 | 0.00 | 0.00 | 34 | 1022.3 |
| 20260903141706 | 82 | 279 | 7.0 | 14.8 | 0.00 | 0.00 | 0.00 | 34 | 1022.5 |
| 20260903141205 | 82 | 287 | 7.0 | 13.9 | 0.00 | 0.00 | 0.00 | 34 | 1022.5 |
| 20260903140705 | 82 | 287 | 5.2 | 12.2 | 0.00 | 0.00 | 0.00 | 34 | 1022.4 |
| 20260903140205 | 82 | 276 | 7.0 | 14.8 | 0.00 | 0.00 | 0.00 | 34 | 1022.2 |
| 20260903135207 | 83 | 299 | 7.8 | 14.8 | 0.00 | 0.00 | 0.00 | 33 | 1022.2 |
| 20260903134706 | 84 | 280 | 7.8 | 17.4 | 0.00 | 0.00 | 0.00 | 34 | 1022.2 |
| 20260903134205 | 83 | 336 | 5.2 | 13.0 | 0.00 | 0.00 | 0.00 | 36 | 1022.2 |
| 20260903133705 | 83 | 275 | 10.4 | 18.2 | 0.00 | 0.00 | 0.00 | 35 | 1022.5 |
| 20260903133205 | 83 | 286 | 8.7 | 14.8 | 0.00 | 0.00 | 0.00 | 36 | 1022.4 |
| 20260903132707 | 83 | 289 | 6.1 | 14.8 | 0.00 | 0.00 | 0.00 | 37 | 1022.1 |
| 20260903131705 | 83 | 277 | 5.2 | 11.3 | 0.00 | 0.00 | 0.00 | 37 | 1022.5 |
| 20260903131205 | 82 | 290 | 4.3 | 10.4 | 0.00 | 0.00 | 0.00 | 38 | 1022.5 |
| 20260903130705 | 82 | 282 | 6.1 | 13.0 | 0.00 | 0.00 | 0.00 | 36 | 1022.5 |
| 20260903124205 | 83 | 286 | 4.3 | 11.3 | 0.00 | 0.00 | 0.00 | 38 | 1023.0 |
| 20260903123705 | 82 | 282 | 9.6 | 17.4 | 0.00 | 0.00 | 0.00 | 39 | 1022.7 |
| 20260903123207 | 81 | 275 | 6.1 | 13.0 | 0.00 | 0.00 | 0.00 | 39 | 1023.2 |
| 20260903122705 | 81 | 285 | 5.2 | 12.2 | 0.00 | 0.00 | 0.00 | 40 | 1022.9 |
| 20260903122205 | 81 | 289 | 8.7 | 13.9 | 0.00 | 0.00 | 0.00 | 40 | 1023.0 |
| 20260903121705 | 81 | 327 | 3.5 | 7.0 | 0.00 | 0.00 | 0.00 | 40 | 1023.1 |
| 20260903121205 | 80 | 291 | 5.2 | 11.3 | 0.00 | 0.00 | 0.00 | 41 | 1023.2 |
| 20260903120707 | 80 | 283 | 7.8 | 12.2 | 0.00 | 0.00 | 0.00 | 40 | 1023.2 |
| 20260903120205 | 80 | 283 | 7.8 | 13.0 | 0.00 | 0.00 | 0.00 | 41 | 1023.0 |
| 20260903115705 | 80 | 344 | 5.2 | 13.0 | 0.00 | 0.00 | 0.00 | 40 | 1023.4 |
| 20260903115206 | 80 | 312 | 7.8 | 13.9 | 0.00 | 0.00 | 0.00 | 40 | 1023.3 |
| 20260903114705 | 80 | 303 | 2.6 | 10.4 | 0.00 | 0.00 | 0.00 | 42 | 1023.3 |
| 20260903113705 | 80 | 302 | 3.5 | 7.0 | 0.00 | 0.00 | 0.00 | 43 | 1023.3 |
| 20260903113205 | 79 | 287 | 6.1 | 11.3 | 0.00 | 0.00 | 0.00 | 43 | 1023.3 |
| 20260903112706 | 79 | 277 | 5.2 | 10.4 | 0.00 | 0.00 | 0.00 | 43 | 1023.4 |
| 20260903112205 | 79 | 287 | 6.1 | 11.3 | 0.00 | 0.00 | 0.00 | 43 | 1023.4 |
| 20260903111205 | 80 | 273 | 1.7 | 5.2 | 0.00 | 0.00 | 0.00 | 47 | 1023.6 |
| 20260903110706 | 80 | 321 | 2.6 | 6.1 | 0.00 | 0.00 | 0.00 | 45 | 1023.6 |
| 20260903110205 | 80 | 22 | 1.7 | 4.3 | 0.00 | 0.00 | 0.00 | 46 | 1023.7 |
| 20260903105205 | 81 | 3 | 2.6 | 5.2 | 0.00 | 0.00 | 0.00 | 44 | 1023.6 |
| 20260903104705 | 81 | 297 | 2.6 | 7.0 | 0.00 | 0.00 | 0.00 | 46 | 1023.7 |
| 20260903104206 | 81 | 356 | 3.5 | 8.7 | 0.00 | 0.00 | 0.00 | 45 | 1023.6 |
| 20260903103705 | 81 | 358 | 2.6 | 6.1 | 0.00 | 0.00 | 0.00 | 44 | 1023.8 |
| 20260903103206 | 81 | 358 | 3.5 | 7.8 | 0.00 | 0.00 | 0.00 | 46 | 1023.8 |
| 20260903102705 | 81 | 66 | 1.7 | 6.1 | 0.00 | 0.00 | 0.00 | 47 | 1023.9 |
| 20260903101707 | 80 | 313 | 1.7 | 11.3 | 0.00 | 0.00 | 0.00 | 46 | 1023.9 |
| 20260903100706 | 80 | 346 | 2.6 | 6.1 | 0.00 | 0.00 | 0.00 | 47 | 1024.2 |
| 20260903100206 | 80 | 275 | 3.5 | 8.7 | 0.00 | 0.00 | 0.00 | 47 | 1024.2 |
| 20260903095705 | 80 | 11 | 4.3 | 6.1 | 0.00 | 0.00 | 0.00 | 47 | 1024.1 |
| 20260903095207 | 80 | 320 | 4.3 | 7.8 | 0.00 | 0.00 | 0.00 | 49 | 1024.2 |
| 20260903094705 | 80 | 279 | 3.5 | 6.1 | 0.00 | 0.00 | 0.00 | 51 | 1024.3 |
| 20260903094206 | 79 | 310 | 1.7 | 4.3 | 0.00 | 0.00 | 0.00 | 51 | 1024.4 |
| 20260903093705 | 78 | 339 | 0.9 | 4.3 | 0.00 | 0.00 | 0.00 | 51 | 1024.5 |
| 20260903093205 | 78 | 5 | 1.7 | 5.2 | 0.00 | 0.00 | 0.00 | 52 | 1024.6 |
| 20260903092707 | 77 | 306 | 1.7 | 4.3 | 0.00 | 0.00 | 0.00 | 52 | 1024.6 |
| 20260903092206 | 77 | 301 | 1.7 | 6.1 | 0.00 | 0.00 | 0.00 | 52 | 1024.5 |
| 20260903091705 | 77 | 217 | 1.7 | 4.3 | 0.00 | 0.00 | 0.00 | 53 | 1024.6 |
| 20260903091205 | 76 | 37 | 1.7 | 4.3 | 0.00 | 0.00 | 0.00 | 54 | 1024.8 |
| 20260903090206 | 76 | 3 | 2.6 | 4.3 | 0.00 | 0.00 | 0.00 | 56 | 1024.9 |
| 20260903085705 | 75 | 28 | 0.9 | 2.6 | 0.00 | 0.00 | 0.00 | 57 | 1025.1 |
| 20260903085207 | 74 | 35 | 0.9 | 2.6 | 0.00 | 0.00 | 0.00 | 58 | 1024.9 |
| 20260903084706 | 74 | 285 | 1.7 | 2.6 | 0.00 | 0.00 | 0.00 | 59 | 1024.9 |
| 20260903084205 | 73 | 33 | 1.7 | 5.2 | 0.00 | 0.00 | 0.00 | 61 | 1024.8 |
| 20260903083705 | 72 | 353 | 2.6 | 5.2 | 0.00 | 0.00 | 0.00 | 61 | 1024.9 |
| 20260903083206 | 71 | 359 | 1.7 | 4.3 | 0.00 | 0.00 | 0.00 | 62 | 1025.2 |
| 20260903082705 | 71 | 337 | 1.7 | 4.3 | 0.00 | 0.00 | 0.00 | 63 | 1025.2 |
| 20260903082207 | 71 | 304 | 1.7 | 2.6 | 0.00 | 0.00 | 0.00 | 63 | 1025.1 |
| 20260903081707 | 70 | 275 | 1.7 | 2.6 | 0.00 | 0.00 | 0.00 | 64 | 1025.1 |
| 20260903081205 | 70 | 325 | 0.9 | 1.7 | 0.00 | 0.00 | 0.00 | 65 | 1025.0 |
| 20260903080706 | 69 | 285 | 1.7 | 4.3 | 0.00 | 0.00 | 0.00 | 65 | 1024.9 |
| 20260903080206 | 69 | 261 | 2.6 | 4.3 | 0.00 | 0.00 | 0.00 | 65 | 1025.0 |
| 20260903074705 | 68 | 296 | 2.6 | 2.6 | 0.00 | 0.00 | 0.00 | 67 | 1025.0 |
| 20260903074205 | 67 | 263 | 1.7 | 2.6 | 0.00 | 0.00 | 0.00 | 67 | 1025.1 |
| 20260903073705 | 67 | 292 | 1.7 | 2.6 | 0.00 | 0.00 | 0.00 | 68 | 1025.2 |
| 20260903073205 | 67 | 267 | 1.7 | 1.7 | 0.00 | 0.00 | 0.00 | 69 | 1025.1 |
| 20260903072705 | 66 | 291 | 0.0 | 0.9 | 0.00 | 0.00 | 0.00 | 69 | 1025.1 |
| 20260903072205 | 66 | 173 | 0.9 | 2.6 | 0.00 | 0.00 | 0.00 | 69 | 1025.2 |
| 20260903071705 | 66 | 267 | 0.9 | 2.6 | 0.00 | 0.00 | 0.00 | 70 | 1025.2 |
| 20260903071206 | 65 | 272 | 1.7 | 2.6 | 0.00 | 0.00 | 0.00 | 71 | 1025.2 |
| 20260903070705 | 65 | 214 | 1.7 | 2.6 | 0.00 | 0.00 | 0.00 | 71 | 1025.2 |
| 20260903065705 | 64 | 251 | 0.9 | 2.6 | 0.00 | 0.00 | 0.00 | 73 | 1025.2 |
| 20260903065206 | 64 | 276 | 0.9 | 1.7 | 0.00 | 0.00 | 0.00 | 74 | 1025.1 |
| 20260903063705 | 63 | 250 | 1.7 | 4.3 | 0.00 | 0.00 | 0.00 | 76 | 1025.4 |
| 20260903063207 | 62 | 247 | 1.7 | 4.3 | 0.00 | 0.00 | 0.00 | 77 | 1025.3 |
| 20260903061705 | 62 | 248 | 1.7 | 4.3 | 0.00 | 0.00 | 0.00 | 80 | 1025.0 |
| 20260903061205 | 61 | 239 | 1.7 | 4.3 | 0.00 | 0.00 | 0.00 | 80 | 1025.2 |
| 20260903060705 | 61 | 233 | 2.6 | 4.3 | 0.00 | 0.00 | 0.00 | 81 | 1025.1 |
| 20260903060206 | 60 | 248 | 1.7 | 4.3 | 0.00 | 0.00 | 0.00 | 82 | 1024.7 |
| 20260903055706 | 60 | 225 | 0.9 | 2.6 | 0.00 | 0.00 | 0.00 | 82 | 1024.8 |
| 20260903055207 | 60 | 239 | 1.7 | 2.6 | 0.00 | 0.00 | 0.00 | 82 | 1024.8 |
| 20260903054705 | 60 | 245 | 1.7 | 2.6 | 0.00 | 0.00 | 0.00 | 83 | 1024.8 |
| 20260903054205 | 59 | 260 | 0.9 | 1.7 | 0.00 | 0.00 | 0.00 | 83 | 1024.8 |
| 20260903053706 | 59 | 267 | 0.9 | 1.7 | 0.00 | 0.00 | 0.00 | 84 | 1024.7 |
| 20260903052705 | 58 | 309 | 0.9 | 1.7 | 0.00 | 0.00 | 0.00 | 84 | 1024.6 |
| 20260903052205 | 58 | 350 | 0.9 | 2.6 | 0.00 | 0.00 | 0.00 | 84 | 1024.7 |
| 20260903051705 | 58 | 62 | 0.9 | 1.7 | 0.00 | 0.00 | 0.00 | 83 | 1024.6 |
| 20260903050705 | 57 | 329 | 0.9 | 1.7 | 0.00 | 0.00 | 0.00 | 83 | 1024.7 |
| 20260903045705 | 57 | 1 | 0.9 | 1.7 | 0.00 | 0.00 | 0.00 | 83 | 1024.4 |
| 20260903045206 | 57 | 1 | 0.9 | 1.7 | 0.00 | 0.00 | 0.00 | 83 | 1024.4 |
| 20260903044207 | 56 | 336 | 0.9 | 1.7 | 0.00 | 0.00 | 0.00 | 83 | 1024.5 |
| 20260903043705 | 56 | 351 | 0.9 | 2.6 | 0.00 | 0.00 | 0.00 | 83 | 1024.5 |
| 20260903042705 | 56 | 91 | 0.9 | 1.7 | 0.00 | 0.00 | 0.00 | 83 | 1024.8 |